| time (UTC) | temp F | wind direction | speed MPH | gust MPH | rain 1hr in | rain 24hr in | rain mn in | humidity % | barometer mb |
| 20260831033107 | 68 | 0 | 0.0 | 0.0 | 0.00 | 0.45 | 0.45 | 94 | 1018.7 |
| 20260831031620 | 68 | 0 | 0.0 | 0.0 | 0.00 | 0.45 | 0.45 | 94 | 1018.6 |
| 20260831030108 | 68 | 0 | 0.0 | 0.0 | 0.00 | 0.45 | 0.45 | 93 | 1018.4 |
| 20260831024609 | 68 | 0 | 0.0 | 0.0 | 0.00 | 0.45 | 0.45 | 93 | 1018.4 |
| 20260831023103 | 68 | 0 | 0.0 | 0.0 | 0.00 | 0.45 | 0.45 | 93 | 1018.2 |
| 20260831021605 | 68 | 0 | 0.0 | 0.0 | 0.00 | 0.45 | 0.45 | 93 | 1018.0 |
| 20260831020108 | 68 | 0 | 0.0 | 0.0 | 0.00 | 0.45 | 0.45 | 92 | 1018.0 |
| 20260831014604 | 69 | 0 | 0.0 | 0.0 | 0.00 | 0.45 | 0.45 | 92 | 1018.0 |
| 20260831013117 | 69 | 0 | 0.0 | 0.0 | 0.00 | 0.45 | 0.45 | 92 | 1017.9 |
| 20260831011608 | 69 | 0 | 0.0 | 0.0 | 0.00 | 0.45 | 0.45 | 92 | 1017.9 |
| 20260831010128 | 69 | 0 | 0.0 | 0.0 | 0.00 | 0.45 | 0.45 | 91 | 1017.7 |
| 20260831004612 | 69 | 0 | 0.0 | 0.0 | 0.00 | 0.45 | 0.45 | 91 | 1017.5 |
| 20260831003107 | 69 | 0 | 0.0 | 0.0 | 0.00 | 0.45 | 0.45 | 91 | 1017.2 |
| 20260831001607 | 69 | 0 | 0.0 | 1.0 | 0.00 | 0.45 | 0.45 | 90 | 1017.2 |
| 20260831000108 | 70 | 140 | 0.0 | 1.0 | 0.00 | 0.45 | 0.45 | 90 | 1017.2 |
| 20260830234603 | 70 | 0 | 0.0 | 2.0 | 0.00 | 0.45 | 0.45 | 90 | 1017.4 |
| 20260830233105 | 70 | 0 | 0.0 | 1.0 | 0.00 | 0.45 | 0.45 | 90 | 1017.5 |
| 20260830231608 | 70 | 140 | 0.0 | 2.0 | 0.00 | 0.45 | 0.45 | 90 | 1017.6 |
| 20260830230106 | 71 | 0 | 0.0 | 2.0 | 0.00 | 0.45 | 0.45 | 90 | 1017.7 |
| 20260830224608 | 71 | 140 | 0.0 | 2.0 | 0.00 | 0.45 | 0.45 | 91 | 1017.8 |
| 20260830223105 | 71 | 0 | 0.0 | 1.0 | 0.02 | 0.45 | 0.45 | 91 | 1017.9 |
| 20260830221604 | 71 | 0 | 0.0 | 2.0 | 0.04 | 0.45 | 0.45 | 91 | 1018.0 |
| 20260830220107 | 71 | 0 | 0.0 | 0.0 | 0.04 | 0.45 | 0.45 | 90 | 1018.0 |
| 20260830214608 | 71 | 0 | 0.0 | 1.0 | 0.04 | 0.45 | 0.45 | 88 | 1018.2 |
| 20260830213100 | 72 | 0 | 0.0 | 1.0 | 0.02 | 0.43 | 0.43 | 86 | 1018.5 |
| 20260830211608 | 72 | 0 | 0.0 | 2.0 | 0.00 | 0.41 | 0.41 | 84 | 1018.5 |
| 20260830210108 | 73 | 0 | 0.0 | 1.0 | 0.00 | 0.41 | 0.41 | 84 | 1018.2 |
| 20260830204606 | 73 | 0 | 0.0 | 3.0 | 0.00 | 0.41 | 0.41 | 83 | 1018.1 |
| 20260830203107 | 72 | 0 | 0.0 | 2.0 | 0.00 | 0.41 | 0.41 | 83 | 1017.9 |
| 20260830201607 | 73 | 0 | 0.0 | 1.0 | 0.00 | 0.41 | 0.41 | 83 | 1017.7 |
| 20260830200114 | 73 | 76 | 0.0 | 1.0 | 0.00 | 0.41 | 0.41 | 83 | 1017.8 |
| 20260830194613 | 73 | 0 | 0.0 | 2.0 | 0.00 | 0.41 | 0.41 | 84 | 1017.9 |
| 20260830193100 | 72 | 0 | 0.0 | 2.0 | 0.00 | 0.41 | 0.41 | 85 | 1017.7 |
| 20260830191607 | 72 | 0 | 0.0 | 3.0 | 0.00 | 0.41 | 0.41 | 85 | 1017.8 |
| 20260830190106 | 71 | 109 | 0.0 | 2.0 | 0.00 | 0.41 | 0.41 | 85 | 1017.7 |
| 20260830184600 | 71 | 57 | 0.0 | 3.0 | 0.00 | 0.41 | 0.41 | 86 | 1018.1 |
| 20260830183111 | 71 | 0 | 0.0 | 2.0 | 0.00 | 0.41 | 0.41 | 86 | 1018.3 |
| 20260830181608 | 71 | 0 | 0.0 | 3.0 | 0.00 | 0.41 | 0.41 | 85 | 1018.3 |
| 20260830180107 | 71 | 109 | 0.0 | 4.0 | 0.00 | 0.41 | 0.41 | 88 | 1018.0 |
| 20260830174643 | 70 | 0 | 0.0 | 5.0 | 0.00 | 0.41 | 0.41 | 92 | 1018.1 |
| 20260830173106 | 70 | 0 | 0.0 | 3.0 | 0.00 | 0.41 | 0.41 | 95 | 1018.2 |
| 20260830171614 | 70 | 137 | 0.0 | 4.0 | 0.00 | 0.41 | 0.41 | 97 | 1018.4 |
| 20260830170107 | 68 | 0 | 0.0 | 3.0 | 0.00 | 0.41 | 0.41 | 96 | 1018.9 |
| 20260830164605 | 68 | 0 | 0.0 | 2.0 | 0.00 | 0.41 | 0.41 | 96 | 1019.6 |
| 20260830163107 | 68 | 0 | 0.0 | 2.0 | 0.00 | 0.41 | 0.41 | 96 | 1019.9 |
| 20260830161619 | 69 | 0 | 0.0 | 2.0 | 0.00 | 0.41 | 0.41 | 97 | 1020.0 |
| 20260830160105 | 68 | 0 | 0.0 | 1.0 | 0.00 | 0.41 | 0.41 | 97 | 1020.1 |
| 20260830154603 | 68 | 0 | 0.0 | 0.0 | 0.03 | 0.41 | 0.41 | 97 | 1020.5 |
| 20260830153109 | 67 | 0 | 0.0 | 0.0 | 0.06 | 0.41 | 0.41 | 96 | 1020.5 |
| 20260830151605 | 67 | 0 | 0.0 | 2.0 | 0.07 | 0.41 | 0.41 | 97 | 1020.6 |
| 20260830150106 | 66 | 0 | 0.0 | 0.0 | 0.10 | 0.41 | 0.41 | 96 | 1020.7 |
| 20260830144602 | 66 | 0 | 0.0 | 1.0 | 0.09 | 0.38 | 0.38 | 96 | 1020.9 |
| 20260830143111 | 65 | 0 | 0.0 | 1.0 | 0.10 | 0.35 | 0.35 | 96 | 1020.7 |
| 20260830141611 | 65 | 0 | 0.0 | 3.0 | 0.13 | 0.34 | 0.34 | 96 | 1021.2 |
| 20260830140117 | 65 | 0 | 0.0 | 2.0 | 0.12 | 0.31 | 0.31 | 96 | 1021.3 |
| 20260830134601 | 66 | 0 | 0.0 | 0.0 | 0.15 | 0.29 | 0.29 | 96 | 1021.2 |
| 20260830133109 | 66 | 0 | 0.0 | 1.0 | 0.17 | 0.25 | 0.25 | 96 | 1021.4 |
| 20260830131612 | 66 | 0 | 0.0 | 1.0 | 0.14 | 0.21 | 0.21 | 95 | 1021.5 |
| 20260830130106 | 66 | 0 | 0.0 | 0.0 | 0.14 | 0.19 | 0.19 | 96 | 1021.4 |
| 20260830124606 | 66 | 0 | 0.0 | 0.0 | 0.09 | 0.14 | 0.14 | 96 | 1021.2 |
| 20260830123109 | 66 | 0 | 0.0 | 0.0 | 0.03 | 0.08 | 0.08 | 96 | 1021.1 |
| 20260830121609 | 66 | 0 | 0.0 | 1.0 | 0.02 | 0.07 | 0.07 | 95 | 1020.6 |
| 20260830120110 | 66 | 0 | 0.0 | 0.0 | 0.00 | 0.05 | 0.05 | 95 | 1020.6 |
| 20260830114601 | 66 | 0 | 0.0 | 0.0 | 0.00 | 0.05 | 0.05 | 95 | 1020.1 |
| 20260830113105 | 65 | 0 | 0.0 | 0.0 | 0.00 | 0.05 | 0.05 | 95 | 1019.3 |
| 20260830111606 | 65 | 0 | 0.0 | 0.0 | 0.00 | 0.05 | 0.05 | 95 | 1019.1 |
| 20260830110106 | 65 | 0 | 0.0 | 0.0 | 0.00 | 0.05 | 0.05 | 95 | 1019.0 |
| 20260830104607 | 66 | 0 | 0.0 | 0.0 | 0.00 | 0.05 | 0.05 | 95 | 1019.1 |
| 20260830103111 | 66 | 0 | 0.0 | 0.0 | 0.00 | 0.05 | 0.05 | 95 | 1019.1 |
| 20260830101609 | 66 | 0 | 0.0 | 0.0 | 0.01 | 0.05 | 0.05 | 94 | 1019.3 |
| 20260830100105 | 66 | 0 | 0.0 | 0.0 | 0.01 | 0.05 | 0.05 | 94 | 1019.3 |
| 20260830094633 | 66 | 0 | 0.0 | 0.0 | 0.01 | 0.05 | 0.05 | 94 | 1019.4 |
| 20260830093107 | 66 | 0 | 0.0 | 0.0 | 0.02 | 0.05 | 0.05 | 94 | 1019.6 |
| 20260830091604 | 66 | 0 | 0.0 | 0.0 | 0.02 | 0.04 | 0.04 | 93 | 1019.7 |
| 20260830090107 | 66 | 0 | 0.0 | 0.0 | 0.02 | 0.04 | 0.04 | 93 | 1019.5 |
| 20260830084609 | 66 | 0 | 0.0 | 0.0 | 0.02 | 0.04 | 0.04 | 93 | 1019.9 |
| 20260830083114 | 66 | 0 | 0.0 | 0.0 | 0.01 | 0.03 | 0.03 | 92 | 1020.1 |
| 20260830081606 | 66 | 0 | 0.0 | 0.0 | 0.01 | 0.02 | 0.02 | 92 | 1020.3 |
| 20260830080105 | 66 | 0 | 0.0 | 0.0 | 0.01 | 0.02 | 0.02 | 92 | 1020.3 |
| 20260830074603 | 66 | 0 | 0.0 | 0.0 | 0.01 | 0.02 | 0.02 | 91 | 1020.3 |
| 20260830073105 | 66 | 0 | 0.0 | 0.0 | 0.01 | 0.02 | 0.02 | 91 | 1020.4 |
| 20260830071620 | 66 | 0 | 0.0 | 0.0 | 0.00 | 0.01 | 0.01 | 91 | 1020.4 |
| 20260830070106 | 66 | 0 | 0.0 | 0.0 | 0.00 | 0.01 | 0.01 | 91 | 1020.3 |
| 20260830064610 | 66 | 0 | 0.0 | 0.0 | 0.00 | 0.01 | 0.01 | 91 | 1020.5 |
| 20260830063105 | 66 | 0 | 0.0 | 0.0 | 0.00 | 0.01 | 0.01 | 91 | 1020.3 |
| 20260830061606 | 66 | 0 | 0.0 | 0.0 | 0.00 | 0.01 | 0.01 | 91 | 1020.3 |
| 20260830054606 | 66 | 0 | 0.0 | 0.0 | 0.00 | 0.01 | 0.01 | 90 | 1020.5 |
| 20260830053119 | 66 | 0 | 0.0 | 0.0 | 0.01 | 0.01 | 0.01 | 90 | 1020.6 |
| 20260830051608 | 67 | 0 | 0.0 | 0.0 | 0.01 | 0.01 | 0.01 | 89 | 1020.8 |
| 20260830050121 | 67 | 0 | 0.0 | 0.0 | 0.01 | 0.01 | 0.01 | 88 | 1021.0 |
| 20260830044604 | 67 | 0 | 0.0 | 1.0 | 0.01 | 0.01 | 0.01 | 87 | 1020.9 |
| 20260830043110 | 68 | 0 | 0.0 | 0.0 | 0.00 | 0.00 | 0.00 | 85 | 1020.8 |
| 20260830041637 | 68 | 0 | 0.0 | 0.0 | 0.00 | 0.00 | 0.00 | 82 | 1020.8 |
| 20260830040115 | 69 | 0 | 0.0 | 0.0 | 0.00 | 0.00 | 0.00 | 80 | 1020.7 |
| 20260830034611 | 69 | 0 | 0.0 | 0.0 | 0.00 | 0.00 | 0.00 | 78 | 1020.7 |